Tracking 17145 objects as of 30-May-2015
HD Live streaming from Space Station

COSMOS 1626

Track COSMOS 1626 now!
10-day predictions
COSMOS 1626 is classified as:


NORAD ID: 15494
Int'l Code: 1985-009A
Perigee: 513.0 km
Apogee: 518.2 km
Inclination: 82.5 °
Period: 94.8 minutes
Semi major axis: 6886 km
RCS: 7.281 m2 (large)
Launch date: January 24, 1985
Source: Commonwealth of Independent States (former USSR) (CIS)
Your satellite tracking list
Your tracking list is empty





NASA's NSSDC Master Catalog

Two Line Element Set (TLE):
1 15494U 85009A   15149.79907808  .00003177  00000-0  14982-3 0  9998
2 15494 082.4809 277.8004 0003758 133.2461 018.6183 15.19133796654868

Source of the keplerian elements: AFSPC

N2YO: 297